Other Public Products
Issued by NWS Grand Forks, ND

Home | Current Version | Previous Version | Graphics & Text | Print | Product List | Glossary On
Versions: 1 2 3 4 5 6 7 8 9 10 11 12 13 14 15 16 17 18 19 20 21 22 23 24 25 26 27 28 29 30 31 32 33 34 35 36 37 38 39 40 41 42 43 44 45 46 47 48 49 50
000
FPUS83 KFGF 031510
OPUFGF
PRAIRIE TO PINES WEATHER ROUNDUP
NATIONAL WEATHER SERVICE EASTERN NORTH DAKOTA/GRAND FORKS ND
900 AM CST TUE MAR 03 2015

 **SATELLITE DATA USED TO AUGMENT SKY COVER AT AUTOMATED STATIONS**
 *****  WEATHER ACROSS EASTERN NORTH DAKOTA  *****

CITY           SKY/WX    TMP DP  RH WIND       PRES   REMARKS
GRAND FORKS    FLURRIES  11   3  70 NW25G35   29.85R WCI -10
GRAND FORKS AF CLOUDY     9  -1  63 N26G38    29.86R WCI -13
GRAND CITY NWS   N/A     10 N/A N/A NW14        N/A  WCI  -5
BUXTON         NOT AVBL
DEVILS LAKE    SUNNY      3  -6  66 NW30G37   29.88S WCI -21
FARGO          LGT SNOW  14   6  70 NW26G35   29.85R WCI  -6
WAHPETON ARPT  CLOUDY    16  10  79 NW25G36   29.82R WCI  -3
$$

 *****  WEATHER ACROSS CENTRAL AND WESTERN NORTH DAKOTA  *****

CITY           SKY/WX    TMP DP  RH WIND       PRES   REMARKS
JAMESTOWN      MOSUNNY    6  -3  66 NW28G38   29.90R WCI -17
BISMARCK       PTSUNNY    7  -4  60 NW24G38   30.03R WCI -14
MINOT          CLOUDY     1  -7  68 W21       30.01R WCI -21
MINOT AFB      SUNNY      0  -6  74 NW24      29.99R WCI -24
GARRISON         N/A      2  -5  72 NW26G36   30.01R WCI -22
WILLISTON      MOSUNNY    4  -5  66 NW17      30.11R WCI -16
DICKINSON      MOSUNNY    7  -3  64 NW21G30   29.98S WCI -13
HETTINGER      PTSUNNY    6  -4  63 NW23G32   30.02R WCI -15
$$

 *****  OTHER OBSERVATIONS NORTHEAST NORTH DAKOTA  *****

CITY           SKY/WX    TMP DP  RH WIND       PRES   REMARKS
WALHALLA       LGT SNOW   5   0  78 NW25G32   29.87R WCI -18
LANGDON        NOT AVBL
CAVALIER       LGT SNOW   7   0  72 NW23G33   29.86R VSB 1   WCI -14
GRAFTON        NOT AVBL
CANDO          FAIR       1  -4  78 NW22      29.91R WCI -21
FORT TOTTEN    NOT AVBL
ROLLA          FAIR       0  -9  65 NW28G35   29.86R WCI -26
RUGBY          FAIR       0  -8  71 NW24      29.95R WCI -24
 ***** THE ABOVE OBSERVATIONS ARE NON NWS ARE NOT QUALITY
        CONTROLLED AND MAY MIS-REPORT RAIN FOR SNOW...
$$

 *****  OTHER OBSERVATIONS SOUTHEAST NORTH DAKOTA *****

CITY           SKY/WX    TMP DP  RH WIND       PRES   REMARKS
COOPERSTOWN    NOT AVBL
VALLEY CITY    FLURRIES   7   1  78 NW31G38   29.87R WCI -17
OAKES            N/A     10   5  79 NW32G39   29.88R WCI -12
GWINNER        CLOUDY    14   7  73 NW29G37   29.87R WCI  -7
BUFFALO        NOT AVBL
WYNDMERE         N/A     16  10  79 NW22        N/A  WCI  -2
 ***** THE ABOVE OBSERVATIONS ARE NON NWS ARE NOT QUALITY
       CONTROLLED AND MAY MIS-REPORT RAIN FOR SNOW...
$$

  *****  WEATHER ACROSS NORTHERN MINNESOTA  *****

CITY           SKY/WX    TMP DP  RH WIND       PRES   REMARKS
FLAG ISLAND    LGT SNOW  10   3  72 NW32      29.68R VSB 1   WCI -12
WARROAD        CLOUDY    12   7  79 NW22G33   29.71R HAZE    WCI  -7
ROSEAU         CLOUDY    12   5  73 NW22      29.72R WCI  -7
HALLOCK        NOT AVBL
THF RVR FALLS  CLOUDY    10   7  85 NW18      29.77R WCI  -8
HALSTAD        NOT AVBL
FOSSTON        CLOUDY    12   5  73 NW23      29.76R HAZE    WCI  -7
BAUDETTE       LGT SNOW  16  11  80 NW22G32   29.63R WCI  -2
WASKISH        LGT SNOW  19  16  86 W10G20    29.64R WCI   8
CROOKSTON      LGT SNOW  12   9  85 N23       29.83R WCI  -7
$$
  *****  WEATHER ACROSS CENTRAL AND WEST MINNESOTA  *****

CITY           SKY/WX    TMP DP  RH WIND       PRES   REMARKS
BEMIDJI        LGT SNOW  17  12  80 NW20      29.67R WCI   1
PARK RAPIDS    LGT SNOW  20  14  77 NW16      29.66R WCI   6
WADENA         LGT SNOW  19  16  86 NW17G28   29.67R WCI   4
DETROIT LAKES  CLOUDY    18  12  79 N23G33    29.75R HAZE    WCI   0
MOORHEAD       CLOUDY    16  10  79 NW23G32   29.84R WCI  -2
FERGUS FALLS   LGT SNOW  18  12  79 NW22G35   29.80R WCI   0
ELBOW LAKE     LGT SNOW  17  15  89 NW18G29   29.74R WCI   1
MORRIS MN      LGT SNOW  19  16  86 NW24G36   29.73R VSB 3/4 WCI   2
STAPLES        LGT SNOW  19  19 100 SW6       29.65S VSB 3/4 WCI  11
WHEATON        LGT SNOW  16  12  86 NW22G35   29.82R WCI  -2
$$
  *****  WEATHER ELSEWHERE ACROSS MINNESOTA  *****

CITY           SKY/WX    TMP DP  RH WIND       PRES   REMARKS
DULUTH         SNOW      19  15  84 SW12      29.61F VSB 1/4 WCI   7
INTRNTL FALLS  LGT SNOW  22  17  81 W10       29.57R WCI  11
ELY            LGT SNOW  19  18  93 SW10      29.56F WCI   8
CLOQUET        SNOW      19  16  86 S9        29.63F VSB 1/2 WCI   9
BRAINERD       SNOW      20  18  92 SW8       29.65S VSB 1/4 WCI  10
HIBBING        SNOW      20  16  84 S5        29.59F VSB 1/2 WCI  13
ALEXANDRIA     LGT SNOW  22  19  89 NW18G29   29.67R VSB 1   WCI   7
SAINT CLOUD    SNOW      20  18  92 S5        29.67F VSB 1/4 WCI  13
MINNEAPOLIS    LGT SNOW  21  19  92 SE5       29.70F FOG     WCI  15
$$

  *****  WEATHER ACROSS SOUTH DAKOTA  *****

CITY           SKY/WX    TMP DP  RH WIND       PRES   REMARKS
SIOUX FALLS    LGT SNOW  26  22  84 W8        29.72R FOG     WCI  18
BROOKINGS      NOT AVBL
WATERTOWN      LGT SNOW  16  11  80 N25G37    29.78R VSB 1   WCI  -3
HURON          LGT SNOW  18  13  80 N26G35    29.87R WCI  -1
SISSETON         N/A     16  13  88 N26G37    29.81R WCI  -3
ABERDEEN       BLWGSNOW  13   6  74 NW33G40   29.94R VSB 3/4 WCI  -9
MITCHELL       MIX PCPN  20  16  84 NW25G31   29.87R VSB 1   WCI   2
PIERRE         CLOUDY    15   7  70 N26G32    29.99R BLWGSNOWWCI  -4
MOBRIDGE       CLOUDY    13   2  61 N28G35    29.96R WCI  -8
RAPID CITY     CLOUDY    14   7  73 N32G43    29.96S WCI  -7
$$

  *****  SOME WEATHER IN NEARBY STATES *****

CITY           SKY/WX    TMP DP  RH WIND       PRES   REMARKS
GLASGOW MT     SUNNY      6  -5  60 NW21G30   30.16R WCI -14
GREAT FALLS MT PTCLDY     1  -2  87 SW7       30.18F WCI -12
CHEYENNE WY    LGT SNOW  11   4  73 N29G38    29.80R WCI -11
SCOTTSBLUFF NE LGT SNOW  18  11  74 N17       29.96R WCI   3
OMAHA NE       FRZ DRZL  33  31  92 NW8       29.72R FOG
DES MOINES IA  FRZ DRZL  33  31  92 SW7       29.69R VSB 1
DAVENPORT IA   CLOUDY    30  27  88 S15       29.71F FOG     WCI  19
CHICAGO IL     CLOUDY    29  26  89 S20G26    29.75F FOG     WCI  16
EAU CLAIRE WI  SNOW      22  18  85 S3        29.70F VSB 1/2
LA CROSSE WI   FRZ RAIN  25  23  92 S5        29.71F FOG     WCI  19
$$

  *****  SOME NATIONAL WEATHER *****

CITY           SKY/WX    TMP DP  RH WIND       PRES   REMARKS
LA GUARDIA NY  CLOUDY    28  12  51 NE8       30.42F WCI  20
RALEIGH NC     CLOUDY    37  17  44 E12       30.39F
ATLANTA GA     LGT RAIN  53  51  93 VRB7      30.24S VSB 1/2
NEW ORLEANS LA CLOUDY    70  68  93 SE8       30.14R
OKLAHOMA CITY  CLOUDY    42  38  85 S17       29.91S
ALBUQUERQUE NM PTSUNNY   40  28  62 N10       29.92F
SALT LAKE CITY LGT RAIN  36  32  85 NW3       29.77S
LOS ANGELES CA PTCLDY    49  43  80 CALM      29.95R
BOISE ID       CLEAR     29  19  66 NW13      29.99R WCI  19
SEATTLE WA     PTCLDY    34  30  85 E5        30.22S
$$

*** WEATHER ACROSS MANITOBA...SASKATCHEWAN AND ONTARIO ***
                ***ONTARIO***

CITY           SKY/WX    TMP DP  RH WIND       PRES   REMARKS
GERALDTON      LGT SNOW  19  12  73 S17G26    29.57F VSB 3/4 WCI   4
THUNDER BAY    LGT SNOW  21  19  93 NE2       29.62F VSB 1
SIOUX LOOKOUT  LGT SNOW  21  18  86 SW8       29.45F WCI  12
TORONTO        CLOUDY    23  16  74 S7        30.19F WCI  15
BIG TROUT LK   LGT SNOW  14  12  92 S7        29.34F WCI   4
PICKLE LAKE    LGT SNOW  19  14  79 SW13      29.38F WCI   7
DRYDEN         FLURRIES  18  12  79 NW14G23   29.50R WCI   4
KENORA         FLURRIES   7  -2  66 NW18G24   29.63R WCI -12
$$
                *** MANITOBA***

CITY           SKY/WX    TMP DP  RH WIND       PRES   REMARKS
BRANDON        MOSUNNY   -2 -11  65 NW23      29.92R WCI -26
DAUPHIN        LGT SNOW  -2  -9  71 W18       29.90R WCI -24
ISLAND LAKE    LGT SNOW  -2 -11  65 NW14G26   29.56R DRFTSNOWWCI -21
PILOT MOUND      N/A     -2  -8  78 NW28G37     N/A  WCI -28
THE PAS        MOSUNNY   -9 -18  64 NW25      29.88R WCI -37
THOMPSON       FLURRIES -11 -18  70 NW17      29.70S WCI -35
WINNIPEG       MOSUNNY    3  -6  66 NW26      29.84R WCI -20
LYNN LAKE      LGT SNOW -17 -26  63 NW16G24   29.83R WCI -41
CHURCHILL      CLOUDY    -9 -17  70 NE23      29.89R WCI -36
GILLAM         SNOW      -4 -11  71 N21G29    29.59R VSB 3/8 WCI -28
$$
                ***SASKATCHEWAN***

CITY           SKY/WX    TMP DP  RH WIND       PRES   REMARKS
ESTEVAN        SUNNY     -4  -9  77 NW22G28   30.02S WCI -28
KINDERSLEY     PTCLDY    -8 -13  77 W12       30.14F WCI -27
LLOYDMINSTER   PTCLDY    -8 -17  65 W13       30.09F WCI -28
PRINCE ALBERT  PTCLDY    -6 -15  65 NW14G21   30.03F WCI -26
REGINA         MOSUNNY   -8 -15  71 W13       30.05F WCI -28
YORKTON        SUNNY     -8 -17  65 NW20G25   29.94R WCI -32


USA.gov is the U.S. government's official web portal to all federal, state and local government web resources and services.